Midland, MI

6:12 AM EDT on September 22, 2017 (GMT -0400)
Barstow

Weather History for KIKW - December, 2013

Change the Weather History Date:

Sunday, December 15, 2013

  Actual Average (KMBS) Record (KMBS)
Temperature  
Mean Temperature 17 °F -  
Max Temperature 24 °F 32 °F 55 °F (2011)
Min Temperature 9 °F 20 °F 8 °F (2010)
Degree Days  
Heating Degree Days 48    
Moisture  
Dew Point 14 °F    
Average Humidity 81    
Maximum Humidity 96    
Minimum Humidity 64    
Precipitation  
Precipitation 0.00 in - - ()
Sea Level Pressure  
Sea Level Pressure 29.82 in    
Wind  
Wind Speed 7 mph (WSW)    
Max Wind Speed 20 mph    
Max Gust Speed 29 mph    
Visibility 8 miles    
Events Snow    
Averages and records for this station are not official NWS values.
T = Trace of Precipitation, MM = Missing Value Source: NWS Daily Summary

Daily Weather History Graph

Daily Weather History Graph

Search for Another Location

Airport or City:

Trip Planner

Search our weather history database for the weather conditions in past years. The results will help you decide how hot, cold, wet, or windy it might be!

Date:

Astronomy

Dec. 15, 2013 Rise Set
Actual Time 8:03 AM EST 5:00 PM EST
Civil Twilight 7:31 AM EST 5:33 PM EST
Nautical Twilight 6:54 AM EST 6:09 PM EST
Astronomical Twilight 6:19 AM EST 6:44 PM EST
Moon 4:06 PM EST (12/15) 6:16 AM EST (12/15)
Length of Visible Light 10h 02m
Length of Day
8h 57m
Waxing Gibbous, 97% of the Moon is Illuminated
Dec 15
Waxing Gibbous
Dec 17
Full
Dec 25
Last Quarter
Jan 1
New
Jan 7
First Quarter

Hourly Weather History & Observations

Time (EST) Temp. Windchill Dew Point Humidity Pressure Visibility Wind Dir Wind Speed Gust Speed Precip Events Conditions
12:12 AM 19.0 °F 13.9 °F 18.0 °F 96% 29.84 in 10.0 mi NW 3.5 mph - N/A   Overcast
12:33 AM 19.4 °F 14.3 °F 18.3 °F 96% 29.83 in 10.0 mi NNW 3.5 mph - N/A   Overcast
12:53 AM 19.4 °F 12.8 °F 18.5 °F 96% 29.82 in 10.0 mi NW 4.6 mph - N/A   Overcast
1:12 AM 19.8 °F 13.2 °F 18.5 °F 95% 29.82 in 10.0 mi NW 4.6 mph - N/A   Overcast
1:33 AM 19.9 °F 12.1 °F 18.9 °F 96% 29.82 in 10.0 mi WNW 5.8 mph - N/A   Overcast
1:53 AM 20.1 °F 12.3 °F 18.9 °F 95% 29.82 in 10.0 mi WNW 5.8 mph - N/A Snow Light Snow
2:12 AM 20.1 °F 13.6 °F 18.5 °F 93% 29.82 in 10.0 mi WNW 4.6 mph - N/A Snow Light Snow
2:33 AM 20.1 °F 13.6 °F 18.5 °F 93% 29.82 in 7.0 mi WNW 4.6 mph - N/A Snow Light Snow
2:53 AM 20.3 °F 15.4 °F 18.5 °F 93% 29.82 in 7.0 mi WNW 3.5 mph - N/A Snow Light Snow
3:12 AM 20.3 °F - 18.5 °F 93% 29.82 in 10.0 mi Calm Calm - N/A Snow Light Snow
3:33 AM 20.3 °F - 18.5 °F 93% 29.82 in 5.0 mi Calm Calm - N/A Snow Light Snow
3:52 AM 20.3 °F 15.4 °F 18.5 °F 93% 29.81 in 5.0 mi West 3.5 mph - N/A Snow Light Snow
4:12 AM 20.1 °F 13.6 °F 18.3 °F 93% 29.81 in 5.0 mi West 4.6 mph - N/A Snow Light Snow
4:33 AM 20.3 °F 15.4 °F 18.5 °F 93% 29.81 in 4.0 mi West 3.5 mph - N/A Snow Light Snow
4:52 AM 20.1 °F 12.3 °F 18.5 °F 93% 29.81 in 4.0 mi West 5.8 mph - N/A Snow Light Snow
5:12 AM 19.9 °F 13.4 °F 18.1 °F 93% 29.80 in 4.0 mi West 4.6 mph - N/A Snow Light Snow
5:33 AM 19.9 °F - 18.1 °F 93% 29.79 in 3.0 mi Calm Calm - N/A Snow Light Snow
5:52 AM 19.4 °F - 17.8 °F 93% 29.78 in 5.0 mi Calm Calm - N/A Snow Light Snow
6:12 AM 19.4 °F - 18.0 °F 94% 29.78 in 10.0 mi Calm Calm - N/A   Clear
6:33 AM 19.4 °F - 17.6 °F 93% 29.78 in 10.0 mi Calm Calm - N/A Snow Light Snow
6:52 AM 19.4 °F - 18.0 °F 94% 29.77 in 7.0 mi Calm Calm - N/A Snow Light Snow
7:13 AM 19.4 °F 14.3 °F 18.1 °F 95% 29.78 in 3.0 mi SSW 3.5 mph - N/A Snow Light Snow
7:33 AM 19.4 °F 14.3 °F 18.1 °F 95% 29.77 in 4.0 mi SSW 3.5 mph - N/A Snow Light Snow
7:52 AM 19.8 °F 11.9 °F 18.1 °F 93% 29.77 in 3.0 mi SSW 5.8 mph - N/A Snow Light Snow
8:13 AM 19.9 °F 13.4 °F 18.3 °F 93% 29.77 in 1.2 mi SW 4.6 mph - N/A Snow Light Snow
8:33 AM 20.1 °F 12.3 °F 18.5 °F 93% 29.77 in 1.5 mi SSW 5.8 mph - N/A Snow Light Snow
8:52 AM 20.3 °F 13.8 °F 18.5 °F 93% 29.77 in 2.0 mi SW 4.6 mph - N/A Snow Light Snow
9:13 AM 20.8 °F 11.2 °F 19.0 °F 93% 29.77 in 2.0 mi SW 8.1 mph - N/A Snow Light Snow
9:32 AM 21.2 °F 11.7 °F 19.4 °F 93% 29.77 in 2.5 mi WSW 8.1 mph - N/A Snow Light Snow
9:52 AM 21.9 °F 13.4 °F 19.4 °F 90% 29.77 in 3.0 mi WSW 6.9 mph - N/A Snow Light Snow
10:13 AM 22.1 °F 13.7 °F 19.8 °F 91% 29.76 in 3.0 mi WSW 6.9 mph - N/A Snow Light Snow
10:32 AM 22.5 °F 13.2 °F 19.8 °F 89% 29.76 in 2.0 mi WSW 8.1 mph - N/A Snow Light Snow
10:52 AM 23.0 °F 12.4 °F 19.6 °F 87% 29.76 in 2.0 mi WSW 10.4 mph 16.1 mph N/A Snow Light Snow
11:13 AM 23.0 °F 11.7 °F 18.9 °F 84% 29.76 in 3.0 mi West 11.5 mph 16.1 mph N/A Snow Light Snow
11:32 AM 23.0 °F 10.6 °F 17.4 °F 79% 29.76 in 7.0 mi West 13.8 mph 19.6 mph N/A   Overcast
11:52 AM 23.0 °F 8.7 °F 16.0 °F 74% 29.75 in 10.0 mi West 18.4 mph 25.3 mph N/A   Overcast
12:13 PM 23.0 °F 11.1 °F 15.4 °F 73% 29.75 in 10.0 mi West 12.7 mph 24.2 mph N/A   Overcast
12:32 PM 23.0 °F 9.2 °F 14.5 °F 70% 29.75 in 10.0 mi West 17.3 mph 24.2 mph N/A   Overcast
12:52 PM 24.4 °F 10.2 °F 14.7 °F 67% 29.74 in 10.0 mi West 19.6 mph 25.3 mph N/A   Overcast
1:13 PM 23.7 °F 9.3 °F 13.5 °F 65% 29.75 in 10.0 mi West 19.6 mph 28.8 mph N/A   Mostly Cloudy
1:32 PM 23.0 °F 8.7 °F 12.6 °F 64% 29.75 in 7.0 mi West 18.4 mph 25.3 mph N/A   Overcast
1:52 PM 21.9 °F 7.8 °F 11.7 °F 65% 29.76 in 10.0 mi West 17.3 mph 23.0 mph N/A   Overcast
2:13 PM 21.0 °F 7.1 °F 12.0 °F 68% 29.76 in 5.0 mi West 16.1 mph 25.3 mph N/A Snow Light Snow
2:32 PM 21.0 °F 7.1 °F 11.1 °F 66% 29.77 in 7.0 mi West 16.1 mph 25.3 mph N/A   Overcast
2:52 PM 20.3 °F 9.0 °F 10.9 °F 67% 29.78 in 10.0 mi West 10.4 mph 23.0 mph N/A   Overcast
3:12 PM 19.9 °F 5.7 °F 11.5 °F 70% 29.79 in 7.0 mi West 16.1 mph 20.7 mph N/A Snow Light Snow
3:32 PM 19.4 °F 3.6 °F 10.4 °F 68% 29.81 in 10.0 mi West 19.6 mph 25.3 mph N/A   Overcast
3:53 PM 18.7 °F 4.6 °F 10.9 °F 72% 29.82 in 4.0 mi West 15.0 mph 19.6 mph N/A Snow Light Snow
4:12 PM 18.5 °F 6.1 °F 10.2 °F 70% 29.83 in 7.0 mi West 11.5 mph 20.7 mph N/A   Overcast
4:32 PM 18.5 °F 4.9 °F 9.9 °F 69% 29.84 in 10.0 mi West 13.8 mph 19.6 mph N/A   Overcast
4:53 PM 18.1 °F 7.9 °F 10.6 °F 72% 29.85 in 7.0 mi West 8.1 mph - N/A Snow Light Snow
5:12 PM 18.0 °F 5.4 °F 10.8 °F 73% 29.85 in 10.0 mi West 11.5 mph - N/A   Overcast
5:32 PM 18.0 °F 6.9 °F 10.4 °F 72% 29.85 in 10.0 mi West 9.2 mph - N/A   Overcast
5:53 PM 17.8 °F 5.9 °F 9.5 °F 70% 29.86 in 10.0 mi West 10.4 mph 16.1 mph N/A   Overcast
6:12 PM 16.7 °F 2.6 °F 9.0 °F 72% 29.87 in 10.0 mi WSW 13.8 mph 17.3 mph N/A   Scattered Clouds
6:32 PM 16.3 °F 3.4 °F 8.2 °F 70% 29.88 in 10.0 mi West 11.5 mph 17.3 mph N/A   Clear
6:53 PM 15.8 °F 4.2 °F 7.5 °F 70% 29.89 in 10.0 mi West 9.2 mph - N/A   Clear
7:12 PM 15.4 °F 3.8 °F 6.6 °F 68% 29.89 in 10.0 mi West 9.2 mph 17.3 mph N/A   Clear
7:33 PM 14.9 °F 3.1 °F 6.4 °F 69% 29.90 in 10.0 mi West 9.2 mph - N/A   Clear
7:53 PM 14.4 °F 1.6 °F 6.8 °F 72% 29.90 in 10.0 mi WSW 10.4 mph - N/A   Clear
8:12 PM 13.5 °F 2.2 °F 6.6 °F 74% 29.91 in 10.0 mi WSW 8.1 mph - N/A   Clear
8:33 PM 13.1 °F 1.8 °F 6.6 °F 75% 29.92 in 10.0 mi WSW 8.1 mph - N/A   Clear
8:53 PM 12.9 °F 1.6 °F 6.1 °F 74% 29.92 in 10.0 mi WSW 8.1 mph - N/A   Clear
9:12 PM 12.6 °F 2.2 °F 5.5 °F 74% 29.92 in 10.0 mi WSW 6.9 mph - N/A   Clear
9:33 PM 12.0 °F 0.5 °F 4.8 °F 73% 29.93 in 10.0 mi WSW 8.1 mph - N/A   Clear
9:53 PM 12.0 °F 1.5 °F 4.6 °F 72% 29.93 in 10.0 mi WSW 6.9 mph - N/A   Clear
10:12 PM 11.8 °F 2.5 °F 4.6 °F 73% 29.94 in 10.0 mi WSW 5.8 mph - N/A   Clear
10:33 PM 11.5 °F 2.1 °F 4.1 °F 72% 29.94 in 10.0 mi WSW 5.8 mph - N/A   Clear
10:52 PM 11.3 °F 1.9 °F 4.1 °F 73% 29.94 in 10.0 mi WSW 5.8 mph - N/A   Clear
11:12 PM 10.2 °F 0.6 °F 3.6 °F 74% 29.95 in 10.0 mi SW 5.8 mph - N/A   Clear
11:33 PM 10.4 °F 0.8 °F 4.1 °F 76% 29.95 in 10.0 mi SW 5.8 mph - N/A   Clear
11:52 PM 9.5 °F -0.3 °F 3.9 °F 78% 29.95 in 10.0 mi SW 5.8 mph - N/A   Clear